When you browse on this site, cookies collect data to enhance your experience and personalize the content and advertising you see.
Visit our Privacy Policy to learn more. By continuing to use the site, you agree to this use of cookies and data.
  • en France
  • Liste des pays
  • À 7 jours
  • Température de l'eau
  • Carte satellitaire
  • Carte météo
  • Widgets météo
  • user-avatar
    Se connecter

    Météo par heure à Nantes

    Ce jour, 23 Juillet, Mardi

    Heure Température Précipitation Vent Pression Humidité
    00:00 +23°C° 0 mm 2 m/s 762 mmHg 66%
    01:00 +23°C° 0 mm 2 m/s 761 mmHg 65%
    02:00 +23°C° 0 mm 2 m/s 761 mmHg 64%
    03:00 +21°C° 0 mm 2 m/s 761 mmHg 63%
    04:00 +23°C° 0 mm 2 m/s 760 mmHg 62%
    05:00 +24°C° 0 mm 3 m/s 760 mmHg 62%
    06:00 +24°C° 0 mm 3 m/s 760 mmHg 62%
    07:00 +27°C° 0 mm 3 m/s 760 mmHg 55%
    08:00 +30°C° 0 mm 3 m/s 760 mmHg 49%
    09:00 +34°C° 0 mm 4 m/s 759 mmHg 43%
    10:00 +36°C° 0 mm 4 m/s 759 mmHg 38%
    11:00 +40°C° 0 mm 5 m/s 759 mmHg 32%
    12:00 +42°C° 0 mm 5 m/s 758 mmHg 27%
    13:00 +42°C° 0 mm 6 m/s 758 mmHg 26%
    14:00 +44°C° 0 mm 6 m/s 757 mmHg 25%
    15:00 +44°C° 0 mm 6 m/s 757 mmHg 24%
    16:00 +41°C° 0 mm 6 m/s 757 mmHg 28%
    17:00 +40°C° 0 mm 5 m/s 756 mmHg 31%
    18:00 +37°C° 0 mm 5 m/s 756 mmHg 34%
    19:00 +33°C° 0 mm 4 m/s 756 mmHg 48%
    20:00 +28°C° 0 mm 3 m/s 757 mmHg 62%
    21:00 +23°C° 0 mm 2 m/s 757 mmHg 76%
    22:00 +23°C° 0 mm 2 m/s 757 mmHg 82%
    23:00 +21°C° 0 mm 3 m/s 758 mmHg 88%

    Demain, 24 Juillet, Mercredi

    Heure Température Précipitation Vent Pression Humidité
    00:00 +21°C° 0 mm 3 m/s 758 mmHg 94%
    01:00 +20°C° 0 mm 3 m/s 758 mmHg 94%
    02:00 +20°C° 0 mm 3 m/s 758 mmHg 95%
    03:00 +20°C° 0 mm 3 m/s 757 mmHg 95%
    04:00 +20°C° 0 mm 2 m/s 758 mmHg 92%
    05:00 +21°C° 0 mm 2 m/s 758 mmHg 90%
    06:00 +22°C° 0 mm 1 m/s 758 mmHg 87%
    07:00 +24°C° 0 mm 1 m/s 759 mmHg 77%
    08:00 +26°C° 0 mm 1 m/s 759 mmHg 68%
    09:00 +27°C° 0 mm 0 m/s 759 mmHg 59%
    10:00 +30°C° 0 mm 1 m/s 759 mmHg 51%
    11:00 +32°C° 0 mm 1 m/s 759 mmHg 43%
    12:00 +35°C° 0 mm 2 m/s 758 mmHg 35%
    13:00 +36°C° 0 mm 2 m/s 758 mmHg 33%
    14:00 +36°C° 0 mm 3 m/s 758 mmHg 32%
    15:00 +37°C° 0 mm 4 m/s 757 mmHg 30%
    16:00 +35°C° 0 mm 4 m/s 757 mmHg 33%
    17:00 +34°C° 0 mm 4 m/s 757 mmHg 37%
    18:00 +32°C° 0 mm 4 m/s 756 mmHg 40%
    19:00 +29°C° 0 mm 3 m/s 756 mmHg 46%
    20:00 +26°C° 0 mm 2 m/s 757 mmHg 53%
    21:00 +23°C° 0 mm 2 m/s 757 mmHg 59%
    22:00 +23°C° 0 mm 1 m/s 757 mmHg 60%
    23:00 +23°C° 0 mm 1 m/s 756 mmHg 60%

    Après-demain, 25 Juillet, Jeudi

    Heure Température Précipitation Vent Pression Humidité
    00:00 +23°C° 0 mm 1 m/s 756 mmHg 61%
    01:00 +23°C° 0 mm 1 m/s 756 mmHg 59%
    02:00 +24°C° 0 mm 1 m/s 755 mmHg 58%
    03:00 +25°C° 0 mm 1 m/s 755 mmHg 57%
    04:00 +25°C° 0 mm 2 m/s 755 mmHg 57%
    05:00 +26°C° 0 mm 2 m/s 755 mmHg 57%
    06:00 +27°C° 0 mm 3 m/s 755 mmHg 57%
    07:00 +29°C° 0 mm 4 m/s 755 mmHg 50%
    08:00 +32°C° 0 mm 4 m/s 755 mmHg 43%
    09:00 +34°C° 0 mm 5 m/s 755 mmHg 36%
    10:00 +35°C° 0 mm 5 m/s 755 mmHg 37%
    11:00 +35°C° 0 mm 5 m/s 755 mmHg 38%
    12:00 +35°C° 0 mm 5 m/s 756 mmHg 39%
    13:00 +35°C° 0 mm 6 m/s 756 mmHg 38%
    14:00 +34°C° 0 mm 6 m/s 756 mmHg 38%
    15:00 +34°C° 0 mm 6 m/s 756 mmHg 38%
    16:00 +32°C° 0 mm 6 m/s 756 mmHg 41%
    17:00 +30°C° 0 mm 6 m/s 756 mmHg 43%
    18:00 +28°C° 0 mm 6 m/s 756 mmHg 46%
    19:00 +26°C° 0 mm 5 m/s 757 mmHg 60%
    20:00 +22°C° 0 mm 4 m/s 757 mmHg 73%
    21:00 +20°C° 0 mm 3 m/s 757 mmHg 87%
    22:00 +19°C° 0 mm 3 m/s 758 mmHg 89%
    23:00 +19°C° 0 mm 2 m/s 758 mmHg 91%

    26 Juillet, Vendredi

    Heure Température Précipitation Vent Pression Humidité
    00:00 +19°C° 0 mm 2 m/s 758 mmHg 93%
    01:00 +19°C° 0.1 mm 2 m/s 758 mmHg 93%
    02:00 +19°C° 0.1 mm 2 m/s 758 mmHg 92%
    03:00 +19°C° 0.1 mm 2 m/s 758 mmHg 91%
    04:00 +20°C° 0.2 mm 2 m/s 758 mmHg 90%
    05:00 +20°C° 0.2 mm 3 m/s 758 mmHg 90%
    06:00 +20°C° 0.2 mm 3 m/s 758 mmHg 89%
    07:00 +20°C° 0.3 mm 3 m/s 758 mmHg 85%
    08:00 +20°C° 0.3 mm 3 m/s 758 mmHg 82%
    09:00 +21°C° 0.3 mm 3 m/s 758 mmHg 78%
    10:00 +22°C° 0.1 mm 3 m/s 758 mmHg 70%
    11:00 +24°C° 0.1 mm 3 m/s 758 mmHg 62%
    12:00 +26°C° 0.1 mm 3 m/s 758 mmHg 54%
    13:00 +26°C° 0 mm 3 m/s 758 mmHg 51%
    14:00 +27°C° 0 mm 3 m/s 758 mmHg 48%
    15:00 +28°C° 0 mm 4 m/s 757 mmHg 45%
    16:00 +27°C° 0 mm 4 m/s 757 mmHg 50%
    17:00 +26°C° 0 mm 5 m/s 757 mmHg 54%
    18:00 +25°C° 0 mm 5 m/s 757 mmHg 58%
    19:00 +23°C° 0 mm 5 m/s 757 mmHg 63%
    20:00 +22°C° 0 mm 4 m/s 757 mmHg 69%
    21:00 +20°C° 0 mm 4 m/s 757 mmHg 74%
    22:00 +20°C° 0 mm 3 m/s 757 mmHg 76%
    23:00 +19°C° 0 mm 3 m/s 757 mmHg 78%

    27 Juillet, Samedi

    Heure Température Précipitation Vent Pression Humidité
    00:00 +18°C° 0 mm 3 m/s 757 mmHg 79%
    01:00 +18°C° 0 mm 3 m/s 757 mmHg 82%
    02:00 +18°C° 0 mm 3 m/s 756 mmHg 84%
    03:00 +18°C° 0 mm 3 m/s 756 mmHg 86%
    04:00 +18°C° 0.1 mm 4 m/s 756 mmHg 85%
    05:00 +17°C° 0.1 mm 4 m/s 756 mmHg 84%
    06:00 +17°C° 0.1 mm 4 m/s 756 mmHg 83%
    07:00 +18°C° 0 mm 4 m/s 756 mmHg 76%
    08:00 +20°C° 0 mm 4 m/s 756 mmHg 69%
    09:00 +21°C° 0 mm 4 m/s 756 mmHg 62%
    10:00 +22°C° 0 mm 4 m/s 756 mmHg 58%
    11:00 +22°C° 0 mm 4 m/s 756 mmHg 53%
    12:00 +24°C° 0 mm 3 m/s 756 mmHg 49%
    13:00 +25°C° 0 mm 4 m/s 756 mmHg 49%
    14:00 +25°C° 0 mm 4 m/s 756 mmHg 48%
    15:00 +25°C° 0 mm 4 m/s 756 mmHg 47%
    16:00 +25°C° 0 mm 5 m/s 756 mmHg 50%
    17:00 +23°C° 0 mm 5 m/s 756 mmHg 52%
    18:00 +22°C° 0 mm 6 m/s 756 mmHg 55%
    19:00 +20°C° 0 mm 5 m/s 756 mmHg 64%
    20:00 +19°C° 0 mm 4 m/s 757 mmHg 74%
    21:00 +17°C° 0 mm 3 m/s 757 mmHg 83%
    22:00 +16°C° 0 mm 3 m/s 757 mmHg 87%
    23:00 +16°C° 0 mm 3 m/s 757 mmHg 90%

    28 Juillet, Dimanche

    Heure Température Précipitation Vent Pression Humidité
    00:00 +15°C° 0 mm 2 m/s 757 mmHg 93%
    01:00 +15°C° 0 mm 2 m/s 757 mmHg 93%
    02:00 +15°C° 0 mm 2 m/s 757 mmHg 93%
    03:00 +15°C° 0 mm 2 m/s 757 mmHg 92%
    04:00 +15°C° 0 mm 2 m/s 757 mmHg 91%
    05:00 +15°C° 0 mm 2 m/s 758 mmHg 90%
    06:00 +15°C° 0 mm 2 m/s 758 mmHg 89%
    07:00 +17°C° 0 mm 2 m/s 758 mmHg 78%
    08:00 +19°C° 0 mm 3 m/s 758 mmHg 67%
    09:00 +21°C° 0 mm 3 m/s 758 mmHg 56%
    10:00 +24°C° 0 mm 3 m/s 758 mmHg 50%
    11:00 +25°C° 0 mm 4 m/s 758 mmHg 45%
    12:00 +26°C° 0 mm 4 m/s 758 mmHg 39%
    13:00 +26°C° 0 mm 5 m/s 758 mmHg 39%
    14:00 +26°C° 0 mm 5 m/s 758 mmHg 39%
    15:00 +26°C° 0 mm 6 m/s 758 mmHg 39%
    16:00 +25°C° 0 mm 5 m/s 758 mmHg 44%
    17:00 +23°C° 0 mm 5 m/s 759 mmHg 49%
    18:00 +22°C° 0 mm 5 m/s 759 mmHg 54%
    19:00 +20°C° 0 mm 4 m/s 759 mmHg 66%
    20:00 +18°C° 0 mm 3 m/s 760 mmHg 77%
    21:00 +16°C° 0 mm 2 m/s 760 mmHg 88%
    22:00 +15°C° 0 mm 2 m/s 760 mmHg 90%
    23:00 +14°C° 0 mm 2 m/s 760 mmHg 91%
    Voir plus